Location: ?????????
(41.9333°N, 44.9333°E)
Time: 23:28:43
(UTC+00:00)

Daily predictions for brighter satellites

Satellite Brightness Start Highest point End
(mag) Time Altitude Azimuth Time Altitude Azimuth Time Altitude Azimuth
CZ-2C R/B 2.9 13:53:11 10° SSE 13:58:06 80° ENE 14:02:53 10° N
CZ-4C R/B 3.6 13:53:13 10° NNW 13:59:36 34° NE 14:06:56 10° ESE
Spot 1 4.5 13:55:05 10° NNE 13:59:53 88° WNW 14:04:53 10° SSW
CZ-2C R/B 3.8 14:01:45 10° NE 14:05:32 20° E 14:09:18 10° SE
Cosmos 1763 Rocket 3.7 14:01:05 10° SSW 14:06:07 72° WNW 14:11:15 10° NNE
USA 229 DEB 4.0 13:59:01 10° NNW 14:06:27 79° NE 14:14:19 10° SE
USA 229 4.0 13:59:07 10° NNW 14:06:33 78° NE 14:14:24 10° SE
CZ-4B R/B 4.1 14:05:09 10° ESE 14:09:26 25° ENE 14:13:42 10° N
Cosmos 1782 3.2 14:06:26 10° SSE 14:10:13 42° E 14:14:00 10° NNE
H-2A R/B 2.7 14:05:52 10° SE 14:10:21 31° ENE 14:14:46 10° N
Cosmos 841 Rocket 3.6 14:08:22 10° S 14:13:24 57° ESE 14:18:27 10° NNE
Cosmos 2360 4.2 14:10:37 10° NNW 14:16:22 73° ENE 14:22:04 10° SSE
Cosmos 1627 Rocket 4.5 14:10:55 10° N 14:17:01 60° E 14:23:01 10° SSE
Cosmos 2034 Rocket 4.4 14:11:25 10° SSW 14:17:31 66° W 14:23:40 10° N
CZ-2D R/B 3.9 14:14:13 10° SE 14:17:38 32° ENE 14:21:04 10° N
GPS 2-04 Rocket1 4.2 14:15:25 10° WSW 14:19:06 33° S 14:22:48 10° ESE
COSMOS 2455 2.9 14:13:17 10° SSW 14:19:15 72° ESE 14:25:17 10° NNE
Cosmos 2279 Rocket 4.5 14:13:40 10° SSE 14:19:17 37° E 14:24:55 10° NNE
Cosmos 1500 3.5 14:16:37 10° N 14:20:10 40° ENE 14:23:41 10° SSE
Meteor 1-20 Rocket 4.4 14:15:09 10° N 14:21:01 87° W 14:26:52 10° S
Meteor 2-21 4.5 14:15:03 10° N 14:21:02 56° ENE 14:26:57 10° SSE
Cosmos 1937 Rocket 3.5 14:15:45 10° NNW 14:21:04 70° ENE 14:26:21 10° SSE
USA 234 3.3 14:16:10 10° ESE 14:22:33 59° NE 14:28:56 10° NW
Cosmos 1340 Rocket 4.0 14:19:26 10° NNW 14:23:22 47° W 14:27:16 10° S
SMAP 3.0 14:19:25 10° SSE 14:24:02 80° ENE 14:28:43 10° N
Cosmos 372 Rocket 4.1 14:24:16 10° N 14:29:24 52° ENE 14:34:30 10° SE
AQUARIUS 4.1 14:25:06 10° SSE 14:29:34 77° ENE 14:34:04 10° N
NOSS 3-1 (A) 4.5 14:22:24 10° NW 14:30:08 74° WSW 14:39:01 10° SSE
Cosmos 921 Rocket 4.4 14:27:32 10° SE 14:30:26 18° E 14:31:41 16° ENE
Meteor 1-26 Rocket 4.3 14:25:16 10° S 14:31:12 76° E 14:37:15 10° NNE
COSMO-SKYMED 1 3.4 14:27:36 10° NE 14:31:27 30° E 14:35:15 10° SSE
Lacrosse 5 rocket 2.9 14:29:36 10° NNW 14:32:20 18° NNE 14:33:35 16° NE
NOAA 6 4.1 14:29:02 10° SSE 14:34:10 85° WSW 14:39:20 10° NNW
NOSS 2-2 (D) 4.5 14:29:16 10° NNW 14:34:35 62° NE 14:42:02 10° SE
SL-24 R/B - RUBIN 2 3.6 14:31:26 10° NNW 14:35:51 55° NE 14:40:04 10° SE
Cosmos 44 Rocket 4.4 14:32:22 10° N 14:36:20 24° NE 14:38:29 18° E
Cosmos 1634 Rocket 4.0 14:30:59 10° S 14:37:18 84° E 14:43:40 10° N
Cosmos 1633 Rocket 3.6 14:34:07 10° N 14:38:09 36° ENE 14:42:12 10° SE
Meteor 2-14 Rocket 4.4 14:37:13 10° N 14:43:21 86° E 14:49:24 10° S
Cosmos 2026 Rocket 4.0 14:37:49 10° N 14:43:59 88° W 14:50:02 10° S
ISS -3.4 14:42:19 10° NW 14:45:36 45° NNE 14:47:02 27° E
Cosmos 1151 Rocket 3.0 14:41:29 10° S 14:45:42 58° E 14:50:00 10° NNE
PSLV R/B 3.6 14:45:35 10° SSE 14:49:15 89° W 14:52:59 10° NNW
Cosmos 1666 2.7 14:45:53 10° N 14:49:30 49° E 14:53:05 10° SSE
Cosmos 2322 Rocket 3.5 14:46:11 10° N 14:50:08 19° NE 14:50:09 19° NE
Cosmos 1900 4.4 14:45:55 10° SSW 14:50:37 53° ESE 14:53:38 22° NE
Cosmos 1697 Rocket 3.5 14:45:42 10° NNW 14:51:10 54° WSW 14:56:36 10° S
Cosmos 1980 Rocket 2.1 14:50:21 10° NNW 14:56:03 85° ENE 15:01:41 10° SSE
Okean O Rocket 1.9 14:52:34 10° SE 14:56:48 45° ENE 15:01:03 10° N
MOS 1-B 4.3 14:51:17 10° SSE 14:57:03 83° ENE 15:02:52 10° NNW
Cosmos 2369 4.0 14:54:28 10° NNW 15:00:11 71° WSW 15:05:51 10° SSE
SJ-11-01 4.3 14:59:35 10° SSE 15:04:14 57° ENE 15:08:53 10° N
Cosmos 1666 Rocket 3.5 15:00:25 10° N 15:04:52 87° E 15:09:16 10° S
APEX 4.1 15:01:28 10° S 15:04:49 30° ESE 15:04:49 30° ESE
Meteor 2-8 Rocket 4.4 14:59:15 10° S 15:05:18 65° E 15:11:24 10° NNE
Landsat 5 3.6 15:03:50 31° NE 15:05:21 47° E 15:09:10 10° S
Meteor 1-5 Rocket 4.2 14:59:54 10° N 15:05:55 77° E 15:11:46 10° SSE
Cosmos 1328 Rocket 3.5 15:01:35 10° S 15:05:59 70° E 15:09:50 14° NNE
Cosmos 1655 Rocket 4.2 15:00:37 10° N 15:06:45 46° ENE 15:12:49 10° SSE
Meteor 1-14 Rocket 4.3 15:01:45 10° N 15:07:39 88° E 15:13:36 10° S
Meteor 2-21 Rocket 4.5 15:01:34 10° N 15:07:41 83° W 15:13:43 10° S
X-37B 2.4 15:05:56 10° SSW 15:07:32 18° SSE 15:07:32 18° SSE
Cosmos 1470 Rocket 3.8 15:03:54 10° N 15:08:11 44° ENE 15:12:27 10° SSE
SL-16 R/B 2.9 15:03:47 10° N 15:08:50 31° NE 15:09:26 31° ENE
Cosmos 2082 Rocket 2.7 15:03:53 10° SW 15:09:28 58° WNW 15:15:02 10° NNE
Cosmos 1812 3.2 15:05:48 10° SSW 15:09:35 61° W 15:13:24 10° N
Cosmos 2180 Rocket 4.4 15:03:36 10° S 15:09:55 73° E 15:16:11 10° NNE
Cosmos 1570 Rocket 4.0 15:04:50 10° SSW 15:10:05 86° WNW 15:14:33 15° NNE
MOS 1-B Rocket 4.2 15:06:13 10° NNE 15:12:13 80° WNW 15:19:07 10° SSW
Cosmos 1814 Rocket 4.2 15:07:04 10° SSW 15:12:17 71° WNW 15:17:01 13° NNE
Cosmos 2298 Rocket 4.3 15:10:13 10° N 15:15:18 43° ENE 15:17:23 30° ESE
SKYMED 2 3.6 15:15:50 14° N 15:19:37 80° WNW 15:23:57 10° SSW
ATLAS 5 CENTAUR R/B 3.1 15:14:52 10° NNW 15:19:12 26° NNE 15:19:12 26° NNE
DMSP B5D2-2 4.4 15:20:51 39° E 15:21:03 39° E 15:25:56 10° SSE
ARGOS 3.0 15:17:09 10° SSE 15:22:34 84° ENE 15:28:00 10° NNW
Cosmos 2278 3.7 15:18:12 10° NNW 15:23:55 81° WSW 15:29:36 10° SSE
Cosmos 1818 3.5 15:21:05 10° NNW 15:26:31 60° NE 15:28:14 41° ESE
DEBRIS 3.5 15:26:20 10° SSW 15:28:00 34° S 15:28:00 34° S
GEOS 3 Rocket 4.2 15:32:37 38° NNE 15:32:37 38° NNE 15:36:57 10° NNW
USA 267 4.3 15:29:13 20° NNE 15:32:53 35° NNW 15:38:40 10° W
CZ-2C R/B 2.8 15:30:12 10° SW 15:33:38 24° SSE 15:33:42 24° SSE
Meteor 1-27 Rocket 3.7 15:31:16 10° S 15:36:37 53° E 15:36:42 53° E
deb Chang Zheng 4 4.3 15:34:28 10° S 15:38:40 53° W 15:42:54 10° NNW
CZ-2C R/B 3.4 15:41:07 10° N 15:46:06 49° WNW 15:51:03 10° SW
Cosmos 1867 4.0 15:42:53 10° S 15:47:15 46° SSE 15:47:15 46° SSE
SL-08 RB Rocket 3.8 15:43:48 10° S 15:48:26 75° WSW 15:53:04 10° NNW
CZ-4C R/B 3.2 15:41:20 10° NW 15:48:49 73° WSW 15:57:21 10° SSE
Cosmos 1515 Rocket 3.7 15:44:52 10° SSW 15:49:18 74° W 15:49:39 69° NW
H-2A R/B 3.8 15:45:07 10° SSW 15:49:42 32° W 15:54:14 10° NNW
CZ-4B R/B 4.2 15:44:31 10° S 15:49:43 46° W 15:54:51 10° NNW
DMSP 5D-2 F-14 4.5 15:45:44 10° SSE 15:51:09 75° ENE 15:56:36 10° N
Cosmos 2150 Rocket 3.8 15:47:08 10° NNW 15:52:20 85° ENE 15:52:34 81° SE
USA 32 3.9 15:54:16 10° S 15:59:29 85° W 15:59:43 81° NNW
USA 234 4.2 15:59:30 10° SSE 16:05:40 43° SW 16:11:51 10° WNW
Cosmos 1125 Rocket 3.7 16:02:28 10° NNW 16:07:07 67° NW 16:07:07 67° NW
Cosmos 921 Rocket 4.3 16:04:32 10° SW 16:08:24 35° WNW 16:08:31 35° WNW
ATLAS CENTAUR R/B 4.4 16:07:14 10° WNW 16:11:13 16° NW 16:12:03 16° NNW
Cosmos 2266 Rocket 4.5 16:05:04 10° NNW 16:11:21 61° W 16:17:39 10° S
Lacrosse 5 rocket 3.5 16:07:53 10° NW 16:09:11 20° NW 16:09:11 20° NW
Cosmos 2360 Rocket 4.0 16:08:51 10° NNW 16:10:24 18° N 16:10:24 18° N
Meteor 1-11 Rocket 4.2 16:11:46 10° NNW 16:17:19 60° W 16:22:57 10° S
Cosmos 44 Rocket 4.2 16:13:26 10° NW 16:17:17 45° W 16:17:17 45° W
ISS -0.4 16:19:27 10° W 16:20:02 13° W 16:20:02 13° W
Okean O Rocket 4.4 16:30:24 10° SW 16:33:21 17° W 16:36:19 10° NW
Cosmos 2322 Rocket 3.5 16:29:06 10° NNW 16:32:02 32° NNW 16:32:02 32° NNW
SL-16 R/B 3.7 16:47:44 10° NW 16:51:24 33° WNW 16:51:24 33° WNW
